Powrót do katalogu

NOAA 16 DEB

AktywnyPO
NORAD 42415·DEBRIS·🇺🇸 United States

Wystrzelony Sep 21, 2000 z Vandenberg Space Force Base

Loading…

Następne Przeloty (najbliższe 24 godziny)

TLE

ŚwieżeSource: Space-Track

Epoka: Sep 14, 2026, 09:18 UTC

1 42415U 00055TK  26257.38790178  .00003654  00000-0  10249-2 0  9997
2 42415  99.0229  93.5930 0020867 234.3424 125.5823 14.46545007547270

Śledź NOAA 16 DEB w czasie rzeczywistym z AllMySat

Download on the App Store